Flag for U.S.A. Weather past 2 weeks in Overland Park, Kansas, U.S.A.

Now
28 °F

Clear.


Feels Like: 23 °F
Forecast: 26 / 44 °F
Wind: 5 mph from North

Location: Johnson County Executive Airport

Current Time: Jan 30, 2015 at 2:59:01 AM

Latest Report: Jan 30, 2015 at 1:53 AM


Visibility: 10 mi

Pressure: 30.55 "Hg

Humidity: 81%

Dew point: 23 °F

Location of Overland ParkLocation

Historic Weather in Overland Park — Graph

°F

Overland Park temperature yesterday

Maximum temperature yesterday: 51 °F (at 12:53 AM)
Minimum temperature yesterday: 30 °F (at 11:53 PM)
Average temperature yesterday: 39 °F

Past Weeks' High & Low Weather Summary

 TemperatureHumidityPressure
High73 °F (Jan 28, 2:53 PM)96% (Jan 23, 3:53 AM)30.55 "Hg (Jan 23, 3:53 AM)
Low20 °F (Jan 15, 1:53 AM)23% (Jan 19, 1:53 PM)29.64 "Hg (Jan 25, 3:53 AM)
Average41 °F60%30.06 "Hg
* Reported Jan 15 1:53 AM — Jan 30 1:53 AM, Overland Park, Weather by CustomWeather, © 2014

Note: Actual official high and low records may vary slightly from our data, if they occured in-between our weather recording intervals... More about our weather records

Advertising

Overland Park weather history for previous 24 hours

 ConditionsComfort  
Time TempWeatherWind HumidityBarometerVisibility
1:53 AM
Jan 30
28 °FClear.5 mph81%30.55 "Hg10 mi
12:53 AM28 °FClear.3 mph81%30.53 "Hg10 mi
11:53 PM
Jan 29
30 °FClear.6 mph75%30.54 "Hg10 mi
10:53 PM31 °FClear.5 mph76%30.53 "Hg10 mi
9:53 PM31 °FClear.5 mph76%30.53 "Hg10 mi
8:53 PM34 °FClear.7 mph67%30.52 "Hg10 mi
7:53 PM35 °FClear.6 mph64%30.51 "Hg10 mi
6:53 PM37 °FClear.9 mph60%30.48 "Hg10 mi
5:53 PM39 °FClear.13 mph57%30.45 "Hg10 mi
4:53 PM41 °FScattered clouds.15 mph53%30.43 "Hg10 mi
3:53 PM42 °FOvercast.14 mph55%30.41 "Hg10 mi
2:53 PM43 °FPartly sunny.15 mph53%30.38 "Hg10 mi
1:53 PM41 °FOvercast.16 mph58%30.37 "Hg10 mi
12:53 PM41 °FOvercast.18 mph58%30.36 "Hg10 mi
11:53 AM41 °FOvercast.21 mph58%30.35 "Hg10 mi
10:53 AM39 °FOvercast.16 mph65%30.33 "Hg10 mi
9:53 AM38 °FOvercast.17 mph68%30.31 "Hg10 mi
8:53 AM38 °FOvercast.16 mph68%30.25 "Hg10 mi
7:53 AM37 °FOvercast.16 mph73%30.22 "Hg10 mi
6:53 AM38 °FOvercast.17 mph73%30.19 "Hg10 mi
5:53 AM38 °FOvercast.24 mph79%30.14 "Hg10 mi
4:53 AM40 °FOvercast.18 mph80%30.08 "Hg9 mi
3:53 AM46 °FOvercast.15 mph71%30.02 "Hg8 mi
2:53 AM47 °FOvercast.13 mph71%29.98 "Hg10 mi
Weather by CustomWeather, © 2014

See weather overviewHow to use our weather pages